Location: Newark
(47.5833°N, 8.1500°E)
Time: 08:01:05
(UTC+00:00)

Vanguard 1 - Pass Details

Date: 31 October 2020
Orbit: 650 x 3833 km, 34.2° (Epoch: 29 November)

Event Time Altitude Azimuth Distance (km) Brightness Sun altitude
Rises 08:02:38 0° 175° (S) 6,554 15.0 15.2°
Reaches altitude 10° 08:09:39 10° 156° (SSE) 6,114 15.6 16.1°
Maximum altitude 08:19:39 16° 126° (SE) 6,154 16.5 17.3°
Drops below altitude 10° 08:30:43 10° 97° (E) 6,937 15.3 18.5°
Sets 08:39:34 0° 80° (E) 7,893 15.1 19.5°
